Starlink 11724

operational
NORAD ID: 64124 Int'l Des: 2025-111 Owner: SPXS Country: US Constellation: starlink
LEOCIRCULAR

Starlink 11724について

説明を読み込み中...

リアルタイム位置

3D地球を読み込み中...

次回通過

高度履歴

Altitude vs Time

uPlot chart will show altitude changes over time

軌道要素

1 64124U 25111B 25352.70452963 .00235029 00000-0 17770-2 0 9995
2 64124 43.0000 101.8793 0002232 301.0725 58.9923 15.70930394 33904
Epoch: Dec 18, 2025 • Age: 27 hours

現在のステータス

高度 357.9 km
速度 7.70 km/s
衛星直下点 -14.22°S, 93.27°W
打ち上げ日 May 24, 2025
運用期間 0.5 years
タイプ internet

技術仕様

分類 Payload
質量 960.00 kg
乾燥質量 910.00 kg
総質量 960.00 kg
長さ 0.30 m
直径 4.10 m
スパン 29.00 m
形状 Box + pan
製造者 SPXS
バスタイプ Starlink V2MD
フェーズステータス In Orbit
所有者/国 SPXS/US

大規模コンステレーション

Loading constellations...